{"data":{"norad_id":43476,"epoch":"2026-05-25T04:41:11.232096Z","epoch_age_seconds":51389,"freshness":"FRESH","line1":"1 43476U 18047A   26145.19526889  .00003368  00000+0  88923-4 0  9993","line2":"2 43476  88.9938 201.1140 0010280 184.0057 176.1117 15.38084438446266","mean_motion":15.38084438,"eccentricity":0.001028,"inclination_deg":88.9938,"raan_deg":201.114,"arg_perigee_deg":184.0057,"mean_anomaly_deg":176.1117,"bstar":8.8923e-5,"rev_number":44626,"period_min":93.622948417088,"perigee_km":444.7530316704,"apogee_km":458.79532905723,"semimajor_km":6829.9111803638,"source":"CELESTRAK","updated_at":"2026-05-25T13:37:55.829334Z"}}